Green Bay, WI

3:37 PM CDT on May 29, 2017 (GMT -0500)
Austin Straubel International

Weather History for KGRB - January, 2014

Change the Weather History Date:

Thursday, January 16, 2014

  Actual Average Record
Temperature  
Mean Temperature 22 °F 16 °F  
Max Temperature 29 °F 24 °F 45 °F (1913)
Min Temperature 14 °F 9 °F -28 °F (1888)
Degree Days  
Heating Degree Days 43 49  
Month to date heating degree days 856 774  
Since 1 July heating degree days 4011 3864  
Cooling Degree Days 0 0  
Month to date cooling degree days 0 0  
Year to date cooling degree days 0 0  
Moisture  
Dew Point 20 °F    
Average Humidity 81    
Maximum Humidity 88    
Minimum Humidity 74    
Precipitation  
Precipitation 0.04 in 0.03 in 0.94 in (1980)
Month to date precipitation 0.80 0.61  
Year to date precipitation 0.80 0.61  
Snow  
Snow 1.00 in 0.40 in 7.50 in (1887)
Month to date snowfall 8.5 6.5  
Since 1 July snowfall 36.1 23.8  
Snow Depth 13.00 in    
Sea Level Pressure  
Sea Level Pressure 29.50 in    
Wind  
Wind Speed 12 mph (SSW)    
Max Wind Speed 22 mph    
Max Gust Speed 31 mph    
Visibility 6 miles    
Events Fog , Snow    
T = Trace of Precipitation, MM = Missing Value Source: NWS Daily Summary

Daily Weather History Graph

Daily Weather History Graph

Search for Another Location

Airport or City:

Trip Planner

Search our weather history database for the weather conditions in past years. The results will help you decide how hot, cold, wet, or windy it might be!

Date:

Astronomy

Jan. 16, 2014 Rise Set
Actual Time 7:24 AM CST 4:40 PM CST
Civil Twilight 6:52 AM CST 5:12 PM CST
Nautical Twilight 6:16 AM CST 5:48 PM CST
Astronomical Twilight 5:41 AM CST 6:23 PM CST
Moon 5:35 PM CST (1/16) 7:14 AM CST (1/16)
Length of Visible Light 10h 19m
Length of Day
9h 15m
Full, 100% of the Moon is Illuminated
Jan 16
Full
Jan 23
Last Quarter
Jan 30
New
Feb 6
First Quarter
Feb 14
Full

Hourly Weather History & Observations

Time (CST) Temp. Windchill Dew Point Humidity Pressure Visibility Wind Dir Wind Speed Gust Speed Precip Events Conditions
12:46 AM 15.1 °F -1.1 °F 10.9 °F 84% 29.58 in 2.5 mi South 17.3 mph 26.5 mph 0.01 in Snow Light Snow
12:53 AM 16.0 °F -0.9 °F 12.0 °F 84% 29.62 in 4.0 mi South 19.6 mph - 0.01 in Snow Light Snow
1:01 AM 16.0 °F 1.1 °F 12.0 °F 84% 29.58 in 4.0 mi South 15.0 mph - 0.00 in Snow Light Snow
1:30 AM 17.1 °F 2.5 °F 12.9 °F 84% 29.56 in 8.0 mi South 15.0 mph 26.5 mph 0.00 in   Overcast
1:41 AM 17.1 °F 2.5 °F 12.9 °F 84% 29.56 in 9.0 mi South 15.0 mph 25.3 mph 0.00 in   Overcast
1:53 AM 18.0 °F 3.6 °F 12.9 °F 81% 29.60 in 8.0 mi South 15.0 mph 26.5 mph 0.00 in   Overcast
2:44 AM 19.0 °F 5.6 °F 14.0 °F 81% 29.53 in 5.0 mi SSW 13.8 mph 27.6 mph 0.00 in Snow Light Snow
2:53 AM 19.0 °F 5.6 °F 15.1 °F 85% 29.56 in 2.5 mi SSW 13.8 mph 27.6 mph 0.00 in Snow Light Snow
3:10 AM 19.0 °F 4.5 °F 15.1 °F 85% 29.51 in 5.0 mi SSW 16.1 mph 25.3 mph 0.00 in Snow Light Snow
3:53 AM 19.9 °F 4.8 °F 15.1 °F 81% 29.52 in 9.0 mi South 18.4 mph 26.5 mph 0.01 in   Overcast
4:53 AM 21.9 °F 6.9 °F 17.1 °F 82% 29.49 in 10.0 mi SSW 19.6 mph 26.5 mph N/A   Overcast
5:53 AM 23.0 °F 8.7 °F 17.1 °F 78% 29.47 in 9.0 mi SSW 18.4 mph 31.1 mph N/A   Overcast
6:53 AM 23.0 °F 11.7 °F 17.1 °F 78% 29.47 in 10.0 mi SSW 11.5 mph - N/A   Overcast
7:53 AM 24.1 °F 12.5 °F 18.0 °F 77% 29.47 in 10.0 mi SSW 12.7 mph - 0.00 in   Overcast
8:34 AM 24.1 °F 13.7 °F 19.0 °F 81% 29.44 in 5.0 mi South 10.4 mph 21.9 mph N/A   Haze
8:53 AM 24.1 °F 13.7 °F 19.0 °F 81% 29.47 in 5.0 mi South 10.4 mph - 0.00 in Snow Light Snow
9:31 AM 24.1 °F 12.5 °F 19.9 °F 84% 29.44 in 1.8 mi SSW 12.7 mph - 0.00 in Snow Light Snow
9:41 AM 24.1 °F 12.5 °F 21.0 °F 88% 29.44 in 0.5 mi SSW 12.7 mph 23.0 mph 0.00 in Fog , Snow Light Snow
9:51 AM 24.8 °F 13.4 °F 21.2 °F 86% 29.43 in 1.5 mi SSW 12.7 mph - 0.00 in Snow Light Snow
9:53 AM 24.1 °F 12.5 °F 21.0 °F 88% 29.47 in 1.5 mi SSW 12.7 mph 20.7 mph 0.00 in Snow Light Snow
10:05 AM 24.1 °F 13.7 °F 21.0 °F 88% 29.43 in 3.0 mi SSW 10.4 mph - 0.00 in Snow Light Snow
10:53 AM 25.0 °F 14.2 °F 21.9 °F 88% 29.46 in 9.0 mi SSW 11.5 mph 18.4 mph 0.00 in   Overcast
11:06 AM 26.1 °F 16.2 °F 21.9 °F 84% 29.42 in 9.0 mi SSW 10.4 mph - N/A   Overcast
11:18 AM 26.1 °F 16.2 °F 21.9 °F 84% 29.42 in 10.0 mi SSW 10.4 mph 20.7 mph N/A   Overcast
11:53 AM 27.0 °F 18.0 °F 21.9 °F 81% 29.44 in 9.0 mi SSW 9.2 mph 18.4 mph N/A   Overcast
12:33 PM 27.0 °F 18.7 °F 23.0 °F 85% 29.39 in 9.0 mi South 8.1 mph - N/A   Overcast
12:53 PM 28.0 °F 21.7 °F 24.1 °F 85% 29.42 in 8.0 mi South 5.8 mph - N/A   Overcast
1:53 PM 28.0 °F 19.3 °F 24.1 °F 85% 29.42 in 7.0 mi South 9.2 mph - N/A   Overcast
2:53 PM 28.9 °F 21.9 °F 25.0 °F 85% 29.44 in 6.0 mi South 6.9 mph - N/A   Overcast
3:53 PM 28.9 °F 25.2 °F 25.0 °F 85% 29.46 in 5.0 mi SSW 3.5 mph - N/A   Overcast
4:53 PM 28.9 °F - 26.1 °F 89% 29.48 in 5.0 mi Calm Calm - 0.00 in Snow Light Snow
5:10 PM 28.0 °F 24.2 °F 27.0 °F 96% 29.46 in 4.0 mi South 3.5 mph - 0.00 in   Overcast
5:53 PM 28.9 °F - 27.0 °F 92% 29.50 in 4.0 mi Calm Calm - 0.00 in Snow Light Snow
6:24 PM 28.0 °F - 27.0 °F 96% 29.48 in 2.5 mi Calm Calm - 0.00 in Snow Light Snow
6:53 PM 28.0 °F - 27.0 °F 96% 29.52 in 2.5 mi Calm Calm - 0.01 in Snow Light Snow
7:06 PM 28.0 °F 24.2 °F 26.1 °F 92% 29.49 in 3.0 mi West 3.5 mph - 0.00 in   Overcast
7:17 PM 28.0 °F 22.8 °F 27.0 °F 96% 29.50 in 3.0 mi WSW 4.6 mph - 0.00 in   Overcast
7:29 PM 28.0 °F 18.1 °F 26.1 °F 92% 29.50 in 4.0 mi West 11.5 mph - 0.00 in   Overcast
7:53 PM 27.0 °F 15.2 °F 25.0 °F 92% 29.54 in 3.0 mi West 15.0 mph - 0.00 in Snow Light Snow
8:53 PM 23.0 °F 9.6 °F 19.9 °F 88% 29.57 in 8.0 mi WNW 16.1 mph 24.2 mph 0.00 in   Overcast
9:53 PM 19.9 °F 5.2 °F 15.1 °F 81% 29.60 in 10.0 mi WNW 17.3 mph - 0.00 in   Overcast
10:48 PM 17.6 °F 0.9 °F 12.2 °F 79% 29.58 in 10.0 mi WNW 20.7 mph - N/A   Overcast
10:53 PM 18.0 °F 2.2 °F 12.9 °F 81% 29.62 in 9.0 mi WNW 18.4 mph - N/A   Overcast
11:53 PM 16.0 °F 3.6 °F 10.0 °F 77% 29.64 in 10.0 mi West 10.4 mph - N/A   Overcast